TimeAKDT,TemperatureF,Dew PointF,Humidity,Sea Level PressureIn,VisibilityMPH,Wind Direction,Wind SpeedMPH,Gust SpeedMPH,PrecipitationIn,Events,Conditions,WindDirDegrees,DateUTC
12:53 AM,55.0,28.9,37,29.80,10.0,SW,16.1,-,N/A,,Partly Cloudy,220,2013-05-28 08:53:00
1:53 AM,53.1,28.0,38,29.81,10.0,SSW,10.4,-,N/A,,Clear,210,2013-05-28 09:53:00
2:53 AM,52.0,28.0,40,29.81,10.0,SSW,10.4,-,N/A,,Clear,210,2013-05-28 10:53:00
3:53 AM,50.0,28.9,44,29.82,10.0,South,4.6,-,N/A,,Clear,180,2013-05-28 11:53:00
4:53 AM,50.0,28.9,44,29.82,10.0,South,4.6,-,N/A,,Mostly Cloudy,190,2013-05-28 12:53:00
5:53 AM,51.1,30.0,44,29.82,10.0,Calm,Calm,-,N/A,,Clear,0,2013-05-28 13:53:00
6:53 AM,54.0,30.0,40,29.81,10.0,Calm,Calm,-,N/A,,Partly Cloudy,0,2013-05-28 14:53:00
7:53 AM,57.9,30.0,35,29.80,10.0,Calm,Calm,-,N/A,,Scattered Clouds,0,2013-05-28 15:53:00
8:53 AM,63.0,30.0,29,29.80,10.0,NE,3.5,-,N/A,,Scattered Clouds,50,2013-05-28 16:53:00
9:53 AM,64.9,28.9,26,29.79,10.0,East,3.5,-,N/A,,Scattered Clouds,90,2013-05-28 17:53:00
10:53 AM,70.0,30.9,24,29.78,10.0,North,3.5,-,N/A,,Scattered Clouds,360,2013-05-28 18:53:00
11:53 AM,72.0,30.9,22,29.77,10.0,SSE,3.5,-,N/A,,Scattered Clouds,150,2013-05-28 19:53:00
12:53 PM,73.0,30.9,21,29.76,10.0,Calm,Calm,-,N/A,,Scattered Clouds,0,2013-05-28 20:53:00
1:53 PM,75.0,28.0,18,29.74,10.0,Variable,3.5,-,N/A,,Scattered Clouds,0,2013-05-28 21:53:00
2:53 PM,77.0,27.0,16,29.73,10.0,ESE,10.4,-,0.00,,Scattered Clouds,110,2013-05-28 22:53:00
3:53 PM,78.1,27.0,15,29.71,10.0,Variable,4.6,-,N/A,,Mostly Cloudy,0,2013-05-28 23:53:00
4:53 PM,75.0,30.0,19,29.71,10.0,NE,9.2,-,N/A,,Mostly Cloudy,40,2013-05-29 00:53:00
5:53 PM,75.0,30.0,19,29.71,10.0,ENE,3.5,-,N/A,,Mostly Cloudy,70,2013-05-29 01:53:00
6:53 PM,75.0,28.9,18,29.69,10.0,South,3.5,-,N/A,,Mostly Cloudy,180,2013-05-29 02:53:00
7:53 PM,75.0,30.0,19,29.69,10.0,West,3.5,-,N/A,,Mostly Cloudy,280,2013-05-29 03:53:00
8:53 PM,73.0,30.9,21,29.68,10.0,West,5.8,-,N/A,,Mostly Cloudy,260,2013-05-29 04:53:00
9:29 PM,69.8,33.8,27,29.70,10.0,SW,9.2,-,N/A,,Mostly Cloudy,220,2013-05-29 05:29:00
9:53 PM,69.1,34.0,27,29.69,10.0,SW,9.2,-,N/A,,Mostly Cloudy,230,2013-05-29 05:53:00
10:53 PM,64.9,34.0,32,29.70,10.0,SW,8.1,-,N/A,,Overcast,230,2013-05-29 06:53:00
11:53 PM,62.1,34.0,35,29.70,10.0,SW,8.1,-,N/A,,Mostly Cloudy,220,2013-05-29 07:53:00